Location: Caltech
(34.1382°N, 118.1253°W)
Time: 15:10:01
(UTC-07:00)

AO-27 - Visible Passes

Search period start: 27 March 2015 00:00
Search period end: 06 April 2015 00:00
Orbit: 786 x 798 km, 98.7° (Epoch: 26 March)

Date Brightness Start Highest point End Pass type
(mag) Time Alt. Az. Time Alt. Az. Time Alt. Az.
27 Mar 10.5 02:59:03 10° NNE 02:59:28 12° NNE 02:59:28 12° NNE visible
28 Mar 9.9 04:10:09 10° N 04:11:06 15° NNW 04:11:06 15° NNW visible
29 Mar 9.9 03:40:45 10° N 03:41:57 17° N 03:41:57 17° N visible
30 Mar 10.1 03:11:46 10° NNE 03:12:49 16° NNE 03:12:49 16° NNE visible
31 Mar 10.5 02:43:12 10° NNE 02:43:41 12° NNE 02:43:41 12° NNE visible
31 Mar 9.8 04:23:21 10° NNW 04:24:28 14° NNW 04:24:28 14° NNW visible
01 Apr 9.7 03:53:44 10° N 03:55:19 19° NNW 03:55:19 19° NNW visible
02 Apr 9.8 03:24:34 10° N 03:26:11 20° N 03:26:11 20° N visible
03 Apr 10.1 02:55:49 10° NNE 02:57:02 17° NNE 02:57:02 17° NNE visible
03 Apr 9.8 04:36:45 10° NNW 04:37:48 13° NW 04:37:48 13° NW visible
04 Apr 10.6 02:27:33 10° NE 02:27:53 11° NE 02:27:53 11° NE visible
04 Apr 9.5 04:06:47 10° N 04:08:40 20° NNW 04:08:40 20° NNW visible
05 Apr 9.4 03:37:27 10° N 03:39:31 24° N 03:39:31 24° N visible
